Regional Weather Roundup
Issued by NWS Sioux Falls, SD

Home | Current Version | Previous Version | Text Only | Print | Product List | Glossary Off
Versions: 1 2 3 4 5 6 7 8 9 10 11 12 13 14 15 16 17 18 19 20 21 22 23 24 25 26 27 28 29 30 31 32 33 34 35 36 37 38 39 40 41 42 43 44 45 46 47 48 49 50

000
ASUS43 KFSD 172310
RWRFSD

WEATHER ROUNDUP FOR SE SOUTH DAKOTA/SW MINNESOTA/NW IOWA
NATIONAL WEATHER SERVICE SIOUX FALLS SD
600 PM CDT THU APR 17 2014

NOTE: "FAIR" INDICATES FEW OR NO CLOUDS BELOW 12,000 FEET WITH NO
SIGNIFICANT WEATHER AND OR OBSTRUCTIONS TO VISIBILITY.


SDZ038>040-050-052>070-180000-
SOUTHEAST SOUTH DAKOTA

CITY           SKY/WX    TMP DP  RH WIND       PRES   REMARKS
CHAMBERLAIN      N/A     45  24  43 S15       30.22R
HURON          CLOUDY    45  17  32 SE8       30.25F
MADISON        FAIR      41  18  38 CALM      30.26F
MITCHELL       PTSUNNY   49  19  30 S8        30.25F
SIOUX FALLS    PTSUNNY   46  23  40 N6        30.27S
WINNER         CLOUDY    47  28  47 E16       30.17F
YANKTON        PTSUNNY   48  21  34 NE3       30.27S
$$

MNZ071-072-080-081-089-090-097-098-180000-
SOUTHWEST MINNESOTA

CITY           SKY/WX    TMP DP  RH WIND       PRES   REMARKS
FAIRMONT       SUNNY     43  28  56 NW9       30.30S
JACKSON        MOSUNNY   43  27  52 NW6       30.27F
LUVERNE        MOSUNNY   45  25  45 N6        30.28R
MARSHALL       SUNNY     37  21  52 N5        30.29F
MONTEVIDEO     SUNNY     43  21  42 N5        30.31S
PIPESTONE      MOSUNNY   39  18  41 NE5       30.27R
REDWOOD FALLS  SUNNY     39  25  57 N8        30.30S
TRACY          SUNNY     37  25  60 CALM      30.29S
WINDOM         MOSUNNY   41  28  60 NE5       30.28F
WORTHINGTON    MOSUNNY   43  21  42 N8        30.29S
$$

IAZ001>003-012>014-020>022-031-032-NEZ013-014-SDZ071-180000-
NORTHWEST IOWA

CITY           SKY/WX    TMP DP  RH WIND       PRES   REMARKS
CHEROKEE       SUNNY     53  26  36 CALM      30.26S
DENISON        SUNNY     52  25  35 CALM      30.23S
ESTHERVILLE    MOSUNNY   43  30  60 MISG      30.26F
LE MARS        SUNNY     50  25  37 N6        30.26S
ORANGE CITY    SUNNY     50  21  32 E5        30.26S
SHELDON        SUNNY     46  27  46 NE7       30.26R
SIOUX CITY     MOSUNNY   52  24  33 NE3       30.26S
SPENCER        SUNNY     46  28  49 N7        30.27S
STORM LAKE     SUNNY     48  27  43 E9        30.25F
$$

ABBREVIATIONS USED IN REMARKS
   TC - TEMPERATURE IN CELSIUS
  WCI - WIND CHILL INDEX
   HX - HEAT INDEX
  VSB - VISIBILITY




USA.gov is the U.S. government's official web portal to all federal, state and local government web resources and services.